[[{"header":{"parameterUnit":"m.s-1","parameterCategory":1,"la1":30.2991,"la2":30.254,"lo1":-89.0895,"lo2":-89.0444,"dy":0.0017,"dx":0.0017,"nx":28,"ny":28,"refTime":"2024-06-02T21:00:00:Z","depth":0,"parameterNumber":2,"parameterNumberName":"U-component_of_WINDS"},"data":[0,0,0,0,0,0,0,0,0,0,0,0,0,0,0,0,0,0,0,0,0,0,0,0,0,0,0,0,0,0,0,0,0,0,0,0,0,0,0,0,0,0,0,0,0,0,0,0,0,0,0,0,0,0,0,0,0,0,-0.4738,-0.4738,0,-0.48,-0.4801,-0.4801,-0.486,-0.4861,-0.4862,-0.4862,-0.4928,-0.4929,-0.493,0,0,0,0,0,0,0,0,0,0,0,0,0,-0.4671,-0.4672,-0.4738,-0.4738,-0.4739,-0.48,-0.4801,-0.4802,-0.486,-0.4861,-0.4862,-0.4863,-0.4927,-0.4928,-0.493,0,0,0,0,0,0,0,0,0,0,0,0,0,-0.4713,-0.4672,-0.4737,-0.4776,-0.478,-0.48,-0.4801,-0.4802,-0.486,-0.4861,-0.4862,-0.4863,-0.4927,-0.4928,-0.493,-0.4917,0,0,-0.4935,-0.4935,0,0,0,0,0,0,0,0,-0.471,-0.4715,-0.4769,-0.4773,-0.4778,-0.4823,-0.4801,-0.4841,-0.486,-0.4829,-0.4862,-0.4864,-0.4892,-0.4897,-0.4906,-0.4921,-0.4923,-0.4935,-0.4936,-0.4936,-0.4937,0,0,0,0,0,0,0,-0.4707,-0.4713,-0.4762,-0.477,-0.4775,-0.479,-0.4797,-0.4809,-0.4854,-0.4832,-0.4837,-0.4843,-0.4895,-0.4904,-0.4908,-0.4924,-0.4935,-0.4936,-0.4937,-0.4938,-0.4933,-0.4932,0,0,0,0,0,0,-0.4699,-0.471,-0.476,-0.4764,-0.4746,-0.479,-0.4799,-0.4808,-0.4854,-0.4862,-0.4842,-0.4846,-0.4901,-0.4906,-0.491,-0.49,-0.4936,-0.4938,-0.4939,-0.4934,-0.4932,-0.4931,0,0,0,0,0,0,-0.4697,-0.4702,-0.4758,-0.4738,-0.4747,-0.479,-0.48,-0.4808,-0.4818,-0.4861,-0.487,-0.4844,-0.4902,-0.4908,-0.4915,-0.4903,-0.4939,-0.494,-0.4935,-0.4933,-0.4932,-0.4877,0,0,0,0,0,0,-0.4695,-0.4701,-0.4697,-0.4738,-0.4747,-0.4761,-0.4799,-0.4809,-0.482,-0.4826,-0.4865,-0.4873,-0.4903,-0.4913,-0.4917,-0.4906,-0.4941,-0.4936,-0.4934,-0.4932,-0.4881,-0.4874,-0.4869,0,0,0,0,0,-0.4692,-0.4679,-0.4696,-0.4702,-0.4743,-0.476,-0.4766,-0.4801,-0.4819,-0.4815,-0.4843,-0.4871,-0.4903,-0.4913,-0.4918,-0.4907,-0.4937,-0.4935,-0.4933,-0.4883,-0.4875,-0.4869,0,0,0,0,0,0,-0.4636,-0.4685,-0.4705,-0.4705,-0.4728,-0.477,-0.4766,-0.4792,-0.4811,-0.4815,-0.4858,-0.4866,-0.4869,-0.4889,-0.4899,-0.4898,-0.4924,-0.4923,-0.4885,-0.4878,-0.4872,-0.4868,-0.4943,0,0,0,0,0,-0.4624,-0.4634,-0.4676,-0.4672,-0.4683,-0.4722,-0.4731,-0.4756,-0.4782,-0.4793,-0.4821,-0.4845,-0.4861,-0.487,-0.4887,-0.4883,-0.4893,-0.4878,-0.4872,-0.4867,-0.4866,-0.4866,-0.486,-0.4923,-0.4923,-0.4923,0,0,-0.4599,-0.4627,-0.463,-0.4662,-0.4683,-0.4692,-0.473,-0.4739,-0.4747,-0.4794,-0.4803,-0.4824,-0.4854,-0.4856,-0.4858,-0.4873,-0.485,-0.4864,-0.486,-0.4861,-0.4863,-0.4857,-0.4851,-0.4922,-0.4922,-0.4922,0,0,-0.4558,-0.4579,-0.4579,-0.4599,-0.463,-0.4656,-0.4656,-0.4694,-0.471,-0.4719,-0.4755,-0.4765,-0.4791,-0.4811,-0.4825,-0.4791,-0.4818,-0.4795,-0.4764,-0.4764,-0.4759,-0.4755,-0.4744,-0.4739,-0.4793,-0.4793,-0.4793,0,-0.4523,-0.4538,-0.4575,-0.4582,-0.4595,-0.4637,-0.4637,-0.4655,-0.469,-0.4698,-0.4713,-0.4747,-0.477,-0.4777,-0.4769,-0.4778,-0.478,-0.4791,-0.4757,-0.4753,-0.475,-0.4739,-0.4735,-0.479,-0.4791,-0.4791,-0.4791,0,-0.4494,-0.4504,-0.45,-0.4532,-0.4545,-0.4548,-0.4586,-0.4594,-0.4618,-0.4642,-0.4652,-0.4681,-0.4704,-0.4708,-0.4731,-0.4719,-0.4727,-0.4748,-0.4776,-0.474,-0.4731,-0.4727,-0.4786,-0.4787,-0.4788,-0.4789,0,0,-0.4421,-0.4473,-0.4471,-0.4486,-0.4523,-0.4532,-0.4537,-0.456,-0.4566,-0.4588,-0.4594,-0.4615,-0.4636,-0.4651,-0.4677,-0.4676,-0.4649,-0.4699,-0.47,-0.4689,-0.4637,-0.4621,-0.4616,-0.4666,-0.4666,-0.4665,-0.4635,0,-0.4387,-0.4399,-0.4432,-0.4433,-0.4444,-0.4484,-0.4488,-0.4512,-0.4535,-0.4547,-0.4573,-0.4587,-0.4613,-0.4623,-0.4624,-0.4652,-0.4639,-0.4654,-0.4673,-0.4673,-0.4665,-0.4611,-0.4594,-0.4564,-0.4632,-0.4631,-0.4631,0,-0.435,-0.4369,-0.4371,-0.4408,-0.4413,-0.4417,-0.444,-0.4451,-0.4479,-0.4496,-0.4512,-0.4541,-0.4549,-0.4574,-0.4586,-0.4596,-0.4605,-0.462,-0.462,-0.4624,-0.4651,-0.4615,-0.4556,-0.4551,-0.4626,-0.4626,-0.4626,0,-0.4297,-0.4324,-0.4329,-0.434,-0.4383,-0.4384,-0.4402,-0.443,-0.4442,-0.4462,-0.447,-0.4491,-0.4503,-0.4519,-0.4553,-0.4568,-0.4562,-0.4589,-0.4577,-0.4576,-0.4575,-0.4574,-0.4517,-0.4579,-0.4579,-0.4579,-0.4579,0,-0.4257,-0.4257,-0.4306,-0.4309,-0.431,-0.4348,-0.4349,-0.437,-0.4395,-0.4404,-0.4439,-0.4447,-0.449,-0.4503,-0.4529,-0.4536,-0.4541,-0.4555,-0.4562,-0.4553,-0.4551,-0.456,-0.4564,-0.4578,-0.4578,-0.4578,-0.4578,0,-0.4199,-0.4231,-0.424,-0.4279,-0.4289,-0.4288,-0.4322,-0.4327,-0.4351,-0.4362,-0.4366,-0.4406,-0.4422,-0.4457,-0.4483,-0.4501,-0.4502,-0.4514,-0.4492,-0.4497,-0.4483,-0.4484,-0.4431,-0.4426,-0.4489,-0.4488,-0.4488,0,-0.4171,-0.4172,-0.4211,-0.4219,-0.4235,-0.4248,-0.4259,-0.4297,-0.4307,-0.4338,-0.434,-0.4359,-0.4376,-0.4401,-0.4432,-0.4452,-0.4466,-0.4446,-0.4469,-0.4459,-0.4467,-0.4466,-0.4467,-0.4441,-0.444,-0.4439,-0.4438,0,-0.412,-0.4135,-0.4151,-0.4171,-0.4184,-0.4202,-0.4222,-0.4227,-0.4269,-0.4279,-0.4296,-0.431,-0.4336,-0.4355,-0.438,-0.4399,-0.4426,-0.443,-0.4429,-0.442,-0.4407,-0.4415,-0.4479,-0.4432,-0.4433,-0.4433,-0.4433,-0.4434,-0.4077,-0.408,-0.4108,-0.4123,-0.4142,-0.416,-0.4167,-0.4192,-0.4206,-0.423,-0.4251,-0.4267,-0.4294,-0.433,-0.4347,-0.436,-0.4373,-0.4371,-0.437,-0.4369,-0.4365,-0.4404,-0.4364,-0.4365,-0.4365,-0.4365,-0.4365,0,-0.4028,-0.4048,-0.4062,-0.4088,-0.4101,-0.4124,-0.4147,-0.4156,-0.4169,-0.4192,-0.4208,-0.4227,-0.4246,-0.4278,-0.4299,-0.4303,-0.4316,-0.4307,-0.4308,-0.4312,-0.4352,-0.4352,-0.4297,-0.4297,-0.4297,-0.4297,-0.4297,-0.4297,-0.4004,-0.401,-0.4029,-0.4045,-0.4065,-0.408,-0.4091,-0.4108,-0.4126,-0.4146,-0.4161,-0.4182,-0.4209,-0.4232,-0.425,-0.4259,-0.4266,-0.4253,-0.4266,-0.4303,-0.4309,-0.4316,-0.4316,-0.4254,-0.4254,-0.4226,-0.4225,-0.4225]},{"header":{"parameterUnit":"m.s-1","parameterCategory":1,"la1":30.2991,"la2":30.254,"lo1":-89.0895,"lo2":-89.0444,"dy":0.0017,"dx":0.0017,"nx":28,"ny":28,"refTime":"2024-06-02T21:00:00:Z","depth":0,"parameterNumber":3,"parameterNumberName":"V-component_of_WINDS"},"data":[0,0,0,0,0,0,0,0,0,0,0,0,0,0,0,0,0,0,0,0,0,0,0,0,0,0,0,0,0,0,0,0,0,0,0,0,0,0,0,0,0,0,0,0,0,0,0,0,0,0,0,0,0,0,0,0,0,0,1.982,1.982,0,1.9804,1.9804,1.9804,1.9715,1.9713,1.9711,1.9709,1.9694,1.9695,1.9697,0,0,0,0,0,0,0,0,0,0,0,0,0,1.9776,1.9777,1.982,1.982,1.982,1.9804,1.9804,1.9803,1.9715,1.9713,1.971,1.9708,1.9693,1.9695,1.9697,0,0,0,0,0,0,0,0,0,0,0,0,0,1.9781,1.9778,1.982,1.9774,1.977,1.9804,1.9804,1.9803,1.9716,1.9713,1.971,1.9707,1.9692,1.9695,1.9697,1.9775,0,0,1.9704,1.9705,0,0,0,0,0,0,0,0,1.9781,1.9783,1.9781,1.9777,1.9772,1.9758,1.9782,1.9794,1.9717,1.9736,1.9709,1.9705,1.9718,1.9718,1.9722,1.9774,1.9774,1.9704,1.9706,1.9707,1.9708,0,0,0,0,0,0,0,1.9781,1.9783,1.9814,1.9781,1.9776,1.9754,1.9751,1.9784,1.9745,1.9734,1.9728,1.9727,1.9715,1.972,1.9721,1.9774,1.9704,1.9706,1.9708,1.9709,1.9888,1.9892,0,0,0,0,0,0,1.9787,1.9783,1.9814,1.9813,1.9769,1.9758,1.9754,1.9766,1.9745,1.9738,1.973,1.9723,1.9717,1.9718,1.972,1.9809,1.9707,1.9709,1.971,1.9885,1.9889,1.9893,0,0,0,0,0,0,1.9786,1.979,1.9815,1.9797,1.9798,1.9762,1.9775,1.9767,1.9772,1.9741,1.9734,1.9742,1.9715,1.9717,1.9762,1.9807,1.971,1.9712,1.9881,1.9886,1.9891,1.9989,0,0,0,0,0,0,1.9785,1.9791,1.982,1.9798,1.9799,1.9857,1.9778,1.9769,1.9776,1.9767,1.9751,1.9745,1.9712,1.9759,1.9764,1.9809,1.9714,1.9877,1.9883,1.9889,1.9982,1.9997,2.001,0,0,0,0,0,1.9784,1.9849,1.9822,1.9826,1.9835,1.986,1.9861,1.9822,1.978,1.9809,1.9789,1.9745,1.9802,1.9764,1.9769,1.9816,1.9874,1.9882,1.9889,1.9975,1.9994,2.001,0,0,0,0,0,0,1.9878,1.9845,1.9815,1.9874,1.9871,1.9845,1.988,1.9843,1.9852,1.9843,1.9795,1.9792,1.9844,1.9834,1.9793,1.989,1.983,1.9839,1.9894,1.9911,1.9925,1.9926,1.9716,0,0,0,0,0,1.9905,1.9928,1.9898,1.9953,1.9953,1.9917,1.9927,1.9897,1.9891,1.989,1.9873,1.9869,1.9886,1.9898,1.9912,1.998,1.9975,2.0014,2.0028,2.004,2.0048,2.0083,2.01,1.9918,1.9918,1.9917,0,0,1.9963,1.9947,1.9965,1.9972,1.9965,1.999,1.9917,1.9946,1.9964,1.9894,1.9935,1.9923,1.9916,1.9973,1.9997,1.9966,2.0098,2.005,2.0059,2.0061,2.0092,2.011,2.0125,1.9923,1.9922,1.9921,0,0,2.0079,2.007,2.0115,2.011,2.0101,2.0076,2.0087,2.0067,2.0056,2.0097,2.0045,2.0065,2.0095,2.0092,2.0095,2.021,2.0169,2.0215,2.0289,2.0324,2.0338,2.035,2.0391,2.0406,2.0224,2.0224,2.0224,0,2.0152,2.0186,2.0143,2.0175,2.018,2.0117,2.0162,2.0159,2.0156,2.016,2.0126,2.0162,2.0153,2.0207,2.0235,2.0239,2.025,2.0217,2.0339,2.0351,2.0362,2.0401,2.0416,2.023,2.0229,2.0228,2.0228,0,2.0275,2.03,2.0337,2.0334,2.0343,2.0382,2.0344,2.0358,2.0328,2.0307,2.0349,2.0336,2.0346,2.0357,2.0328,2.0407,2.0388,2.0348,2.0287,2.0386,2.0421,2.0436,2.0238,2.0236,2.0234,2.0233,0,0,2.0451,2.0423,2.0437,2.0435,2.042,2.0438,2.0474,2.0483,2.0496,2.0495,2.0524,2.055,2.0512,2.0515,2.0485,2.0515,2.0606,2.047,2.0469,2.0496,2.0693,2.0724,2.0741,2.058,2.0582,2.0584,2.0694,0,2.0562,2.0621,2.0583,2.0648,2.067,2.061,2.0641,2.0636,2.0617,2.0634,2.0613,2.0633,2.0581,2.0582,2.0609,2.059,2.0645,2.0581,2.0606,2.0607,2.0609,2.076,2.0792,2.0896,2.0707,2.0709,2.0711,0,2.07,2.0705,2.0772,2.0751,2.0759,2.0788,2.0792,2.0809,2.0801,2.0785,2.0789,2.0751,2.0784,2.0725,2.077,2.0728,2.0735,2.0727,2.073,2.0731,2.0665,2.0764,2.0928,2.0944,2.0732,2.073,2.0729,0,2.0821,2.0844,2.0886,2.0886,2.0864,2.0885,2.0877,2.0866,2.0874,2.0878,2.0882,2.0891,2.0896,2.0903,2.0869,2.0829,2.0919,2.0857,2.0907,2.0908,2.0929,2.0928,2.1096,2.0935,2.0935,2.0934,2.0934,0,2.0949,2.0992,2.094,2.0967,2.1013,2.0969,2.1016,2.1002,2.0993,2.1015,2.0965,2.0987,2.094,2.0958,2.0931,2.0973,2.0976,2.0964,2.0957,2.0969,2.097,2.0973,2.0965,2.0938,2.0937,2.0937,2.0936,0,2.1092,2.1059,2.1101,2.1076,2.1071,2.1107,2.1085,2.1109,2.1087,2.1116,2.112,2.1086,2.1104,2.1071,2.1085,2.1067,2.1125,2.1107,2.1128,2.1122,2.1175,2.117,2.1351,2.1372,2.1197,2.1199,2.12,0,2.1176,2.1207,2.1185,2.1196,2.1191,2.121,2.1217,2.1174,2.1184,2.1177,2.1201,2.1215,2.1224,2.1256,2.1233,2.1243,2.1224,2.1287,2.1226,2.1237,2.1225,2.1223,2.1226,2.1299,2.1302,2.1303,2.1305,0,2.1328,2.131,2.1321,2.1328,2.1337,2.134,2.134,2.1352,2.1306,2.132,2.1337,2.1344,2.1358,2.1373,2.1377,2.1369,2.133,2.1324,2.1336,2.1349,2.136,2.1354,2.1162,2.132,2.1319,2.1317,2.1317,2.1316,2.1443,2.1468,2.1456,2.1471,2.1466,2.1466,2.1487,2.1467,2.1481,2.1488,2.1462,2.1486,2.1477,2.1479,2.1475,2.1493,2.1466,2.1484,2.1488,2.1493,2.1501,2.1357,2.1494,2.1494,2.1493,2.1493,2.1493,0,2.1592,2.1581,2.1595,2.1596,2.1607,2.1568,2.1565,2.1578,2.1599,2.1593,2.1603,2.1623,2.1637,2.1614,2.1624,2.1643,2.1625,2.1647,2.1645,2.1644,2.1526,2.1514,2.1661,2.1661,2.1661,2.1661,2.1661,2.1661,2.1671,2.1711,2.1692,2.1729,2.1718,2.174,2.1741,2.1742,2.1737,2.1761,2.1772,2.1757,2.1745,2.1754,2.1765,2.1758,2.1764,2.1792,2.1779,2.1669,2.1652,2.1637,2.1625,2.1794,2.1794,2.1896,2.1897,2.1897]}]]